Time,TemperatureF,DewpointF,PressureIn,WindDirection,WindDirectionDegrees,WindSpeedMPH,WindSpeedGustMPH,Humidity,HourlyPrecipIn,Conditions,Clouds,dailyrainin,SoftwareType,DateUTC
2013-05-26 00:01:00,55.8,44.9,29.97,North,-999,-999.0,-999.0,66,0.00,,,0.00,tws,2013-05-26 04:01:00,
2013-05-26 00:06:00,55.8,44.9,29.97,North,-999,-999.0,-999.0,66,0.00,,,0.00,tws,2013-05-26 04:06:00,
2013-05-26 00:11:00,55.8,45.2,29.97,North,-999,-999.0,-999.0,67,0.00,,,0.00,tws,2013-05-26 04:11:00,
2013-05-26 00:16:00,55.8,45.6,29.97,North,-999,-999.0,-999.0,68,0.00,,,0.00,tws,2013-05-26 04:16:00,
2013-05-26 00:21:00,55.8,45.6,29.97,North,-999,-999.0,-999.0,68,0.00,,,0.00,tws,2013-05-26 04:21:00,
2013-05-26 00:26:00,55.8,45.7,29.97,North,-999,-999.0,-999.0,68,0.00,,,0.00,tws,2013-05-26 04:26:00,
2013-05-26 00:31:00,55.8,45.6,29.97,North,-999,-999.0,-999.0,68,0.00,,,0.00,tws,2013-05-26 04:31:00,
2013-05-26 00:36:00,55.7,45.4,29.97,North,-999,-999.0,-999.0,67,0.00,,,0.00,tws,2013-05-26 04:36:00,
2013-05-26 00:41:00,55.7,45.2,29.97,North,-999,-999.0,-999.0,67,0.00,,,0.00,tws,2013-05-26 04:41:00,
2013-05-26 00:46:00,55.7,45.4,29.97,North,-999,-999.0,-999.0,67,0.00,,,0.00,tws,2013-05-26 04:46:00,
2013-05-26 00:51:00,55.7,45.9,29.97,North,-999,-999.0,-999.0,69,0.00,,,0.00,tws,2013-05-26 04:51:00,
2013-05-26 00:56:00,55.6,46.0,29.97,North,-999,-999.0,-999.0,69,0.00,,,0.00,tws,2013-05-26 04:56:00,
2013-05-26 01:01:00,55.5,46.1,29.97,North,-999,-999.0,-999.0,70,0.00,,,0.00,tws,2013-05-26 05:01:00,
2013-05-26 01:06:00,55.5,45.9,29.97,North,-999,-999.0,-999.0,69,0.00,,,0.00,tws,2013-05-26 05:06:00,
2013-05-26 01:11:00,55.4,45.9,29.97,North,-999,-999.0,-999.0,70,0.00,,,0.00,tws,2013-05-26 05:11:00,
2013-05-26 01:16:00,55.3,45.6,29.97,North,-999,-999.0,-999.0,69,0.00,,,0.00,tws,2013-05-26 05:16:00,
2013-05-26 01:21:00,55.2,45.5,29.96,North,-999,-999.0,-999.0,69,0.00,,,0.00,tws,2013-05-26 05:21:00,
2013-05-26 01:26:00,55.2,45.3,29.97,North,-999,-999.0,-999.0,69,0.00,,,0.00,tws,2013-05-26 05:26:00,
2013-05-26 01:31:00,55.2,45.6,29.97,North,-999,-999.0,-999.0,69,0.00,,,0.00,tws,2013-05-26 05:31:00,
2013-05-26 01:36:00,55.2,45.8,29.97,North,-999,-999.0,-999.0,70,0.00,,,0.00,tws,2013-05-26 05:36:00,
2013-05-26 01:41:00,55.2,45.8,29.97,North,-999,-999.0,-999.0,70,0.00,,,0.00,tws,2013-05-26 05:41:00,
2013-05-26 01:46:00,55.2,46.0,29.97,North,-999,-999.0,-999.0,70,0.00,,,0.00,tws,2013-05-26 05:46:00,
2013-05-26 01:51:00,55.3,46.4,29.97,North,-999,-999.0,-999.0,71,0.00,,,0.00,tws,2013-05-26 05:51:00,
2013-05-26 01:56:00,55.3,46.5,29.97,North,-999,-999.0,-999.0,71,0.00,,,0.00,tws,2013-05-26 05:56:00,
2013-05-26 02:01:00,55.3,46.8,29.97,North,-999,-999.0,-999.0,72,0.00,,,0.00,tws,2013-05-26 06:01:00,
2013-05-26 02:06:00,55.3,46.8,29.97,North,-999,-999.0,-999.0,72,0.00,,,0.00,tws,2013-05-26 06:06:00,
2013-05-26 02:11:00,55.3,47.0,29.97,North,-999,-999.0,-999.0,73,0.00,,,0.00,tws,2013-05-26 06:11:00,
2013-05-26 02:16:00,55.1,46.8,29.96,North,-999,-999.0,-999.0,73,0.00,,,0.00,tws,2013-05-26 06:16:00,
2013-05-26 02:21:00,55.0,46.6,29.96,North,-999,-999.0,-999.0,73,0.00,,,0.00,tws,2013-05-26 06:21:00,
2013-05-26 02:26:00,54.9,46.7,29.96,North,-999,-999.0,-999.0,73,0.00,,,0.00,tws,2013-05-26 06:26:00,
2013-05-26 02:31:00,54.8,46.6,29.96,North,-999,-999.0,-999.0,73,0.00,,,0.00,tws,2013-05-26 06:31:00,
2013-05-26 02:36:00,54.8,46.8,29.96,North,-999,-999.0,-999.0,74,0.00,,,0.00,tws,2013-05-26 06:36:00,
2013-05-26 02:41:00,54.6,46.6,29.96,North,-999,-999.0,-999.0,73,0.00,,,0.00,tws,2013-05-26 06:41:00,
2013-05-26 02:46:00,54.5,46.7,29.96,North,-999,-999.0,-999.0,74,0.00,,,0.00,tws,2013-05-26 06:46:00,
2013-05-26 02:51:00,54.3,46.7,29.96,North,-999,-999.0,-999.0,75,0.00,,,0.00,tws,2013-05-26 06:51:00,
2013-05-26 02:56:00,54.1,46.6,29.96,North,-999,-999.0,-999.0,75,0.00,,,0.00,tws,2013-05-26 06:56:00,
2013-05-26 03:01:00,54.0,46.8,29.96,North,-999,-999.0,-999.0,76,0.00,,,0.00,tws,2013-05-26 07:01:00,
2013-05-26 03:06:00,54.0,46.9,29.95,North,-999,-999.0,-999.0,76,0.00,,,0.00,tws,2013-05-26 07:06:00,
2013-05-26 03:11:00,54.1,47.2,29.96,North,-999,-999.0,-999.0,77,0.00,,,0.00,tws,2013-05-26 07:11:00,
2013-05-26 03:16:00,54.1,47.3,29.95,North,-999,-999.0,-999.0,77,0.00,,,0.00,tws,2013-05-26 07:16:00,
2013-05-26 03:21:00,54.2,47.4,29.95,North,-999,-999.0,-999.0,77,0.00,,,0.00,tws,2013-05-26 07:21:00,
2013-05-26 03:26:00,54.2,47.4,29.96,North,-999,-999.0,-999.0,77,0.00,,,0.00,tws,2013-05-26 07:26:00,
2013-05-26 03:31:00,54.2,47.3,29.95,North,-999,-999.0,-999.0,77,0.00,,,0.00,tws,2013-05-26 07:31:00,
2013-05-26 03:36:00,54.2,47.4,29.95,North,-999,-999.0,-999.0,77,0.00,,,0.00,tws,2013-05-26 07:36:00,
2013-05-26 03:41:00,54.1,47.2,29.95,North,-999,-999.0,-999.0,77,0.00,,,0.00,tws,2013-05-26 07:41:00,
2013-05-26 03:46:00,54.0,47.2,29.94,North,-999,-999.0,-999.0,77,0.00,,,0.00,tws,2013-05-26 07:46:00,
2013-05-26 03:51:00,54.0,47.5,29.94,North,-999,-999.0,-999.0,78,0.00,,,0.00,tws,2013-05-26 07:51:00,
2013-05-26 03:56:00,53.9,47.4,29.94,North,-999,-999.0,-999.0,78,0.00,,,0.00,tws,2013-05-26 07:56:00,
2013-05-26 04:01:00,53.9,47.5,29.95,North,-999,-999.0,-999.0,78,0.00,,,0.00,tws,2013-05-26 08:01:00,
2013-05-26 04:06:00,53.8,47.5,29.94,North,-999,-999.0,-999.0,79,0.00,,,0.00,tws,2013-05-26 08:06:00,
2013-05-26 04:11:00,53.8,47.5,29.95,North,-999,-999.0,-999.0,79,0.00,,,0.00,tws,2013-05-26 08:11:00,
2013-05-26 04:16:00,53.8,47.5,29.95,North,-999,-999.0,-999.0,79,0.00,,,0.00,tws,2013-05-26 08:16:00,
2013-05-26 04:21:00,53.8,47.5,29.95,North,-999,-999.0,-999.0,79,0.00,,,0.00,tws,2013-05-26 08:21:00,
2013-05-26 04:26:00,53.8,47.5,29.95,North,-999,-999.0,-999.0,79,0.00,,,0.00,tws,2013-05-26 08:26:00,
2013-05-26 04:31:00,53.8,47.6,29.96,North,-999,-999.0,-999.0,79,0.00,,,0.00,tws,2013-05-26 08:31:00,
2013-05-26 04:36:00,53.8,47.6,29.96,North,-999,-999.0,-999.0,79,0.00,,,0.00,tws,2013-05-26 08:36:00,
2013-05-26 04:41:00,53.8,47.5,29.96,North,-999,-999.0,-999.0,79,0.00,,,0.00,tws,2013-05-26 08:41:00,
2013-05-26 04:46:00,53.8,47.6,29.96,North,-999,-999.0,-999.0,79,0.00,,,0.00,tws,2013-05-26 08:46:00,
2013-05-26 04:51:00,53.8,47.6,29.96,North,-999,-999.0,-999.0,79,0.00,,,0.00,tws,2013-05-26 08:51:00,
2013-05-26 04:56:00,53.9,47.7,29.97,North,-999,-999.0,-999.0,79,0.00,,,0.00,tws,2013-05-26 08:56:00,
2013-05-26 05:01:00,53.9,47.5,29.97,North,-999,-999.0,-999.0,78,0.00,,,0.00,tws,2013-05-26 09:01:00,
2013-05-26 05:06:00,54.0,47.5,29.97,North,-999,-999.0,-999.0,78,0.00,,,0.00,tws,2013-05-26 09:06:00,
2013-05-26 05:11:00,54.1,47.6,29.97,North,-999,-999.0,-999.0,78,0.00,,,0.00,tws,2013-05-26 09:11:00,
2013-05-26 05:16:00,54.0,47.7,29.97,North,-999,-999.0,-999.0,78,0.00,,,0.00,tws,2013-05-26 09:16:00,
2013-05-26 05:21:00,54.0,47.7,29.97,North,-999,-999.0,-999.0,78,0.00,,,0.00,tws,2013-05-26 09:21:00,
2013-05-26 05:26:00,53.9,47.6,29.97,North,-999,-999.0,-999.0,78,0.00,,,0.00,tws,2013-05-26 09:26:00,
2013-05-26 05:31:00,53.9,47.3,29.98,North,-999,-999.0,-999.0,78,0.00,,,0.00,tws,2013-05-26 09:31:00,
2013-05-26 05:36:00,53.8,47.1,29.98,North,-999,-999.0,-999.0,77,0.00,,,0.00,tws,2013-05-26 09:36:00,
2013-05-26 05:41:00,53.8,47.2,29.98,North,-999,-999.0,-999.0,78,0.00,,,0.00,tws,2013-05-26 09:41:00,
2013-05-26 05:46:00,53.7,47.3,29.98,North,-999,-999.0,-999.0,78,0.00,,,0.00,tws,2013-05-26 09:46:00,
2013-05-26 05:51:00,53.7,47.4,29.98,North,-999,-999.0,-999.0,79,0.00,,,0.00,tws,2013-05-26 09:51:00,
2013-05-26 05:56:00,53.7,47.6,29.98,North,-999,-999.0,-999.0,79,0.00,,,0.00,tws,2013-05-26 09:56:00,
2013-05-26 06:01:00,53.7,47.7,29.97,North,-999,-999.0,-999.0,79,0.00,,,0.00,tws,2013-05-26 10:01:00,
2013-05-26 06:06:00,53.6,47.2,29.99,North,-999,-999.0,-999.0,78,0.00,,,0.00,tws,2013-05-26 10:06:00,
2013-05-26 06:11:00,53.6,47.1,29.99,North,-999,-999.0,-999.0,78,0.00,,,0.00,tws,2013-05-26 10:11:00,
2013-05-26 06:16:00,53.6,47.5,29.97,North,-999,-999.0,-999.0,79,0.00,,,0.00,tws,2013-05-26 10:16:00,
2013-05-26 06:21:00,53.4,48.0,29.98,North,-999,-999.0,-999.0,81,0.00,,,0.00,tws,2013-05-26 10:21:00,
2013-05-26 06:26:00,53.1,48.2,29.99,North,-999,-999.0,-999.0,83,0.00,,,0.00,tws,2013-05-26 10:26:00,
2013-05-26 06:31:00,53.0,48.3,30.00,North,-999,-999.0,-999.0,84,0.00,,,0.00,tws,2013-05-26 10:31:00,
2013-05-26 06:36:00,52.9,48.4,30.00,North,-999,-999.0,-999.0,84,0.00,,,0.00,tws,2013-05-26 10:36:00,
2013-05-26 06:41:00,52.8,48.3,30.00,North,-999,-999.0,-999.0,84,0.00,,,0.00,tws,2013-05-26 10:41:00,
2013-05-26 06:46:00,52.7,48.6,30.00,North,-999,-999.0,-999.0,85,0.00,,,0.00,tws,2013-05-26 10:46:00,
2013-05-26 06:51:00,52.8,48.8,30.00,North,-999,-999.0,-999.0,86,0.00,,,0.00,tws,2013-05-26 10:51:00,
2013-05-26 06:56:00,52.8,49.0,30.01,North,-999,-999.0,-999.0,86,0.00,,,0.00,tws,2013-05-26 10:56:00,
2013-05-26 07:01:00,52.9,49.3,30.01,North,-999,-999.0,-999.0,87,0.00,,,0.00,tws,2013-05-26 11:01:00,
2013-05-26 07:06:00,52.9,49.4,30.01,North,-999,-999.0,-999.0,87,0.00,,,0.00,tws,2013-05-26 11:06:00,
2013-05-26 07:11:00,53.0,49.5,30.02,North,-999,-999.0,-999.0,87,0.00,,,0.00,tws,2013-05-26 11:11:00,
2013-05-26 07:16:00,53.1,49.5,30.02,North,-999,-999.0,-999.0,87,0.00,,,0.00,tws,2013-05-26 11:16:00,
2013-05-26 07:21:00,53.2,49.6,30.02,North,-999,-999.0,-999.0,87,0.00,,,0.00,tws,2013-05-26 11:21:00,
2013-05-26 07:31:00,53.6,50.1,30.02,North,-999,-999.0,-999.0,87,0.00,,,0.00,tws,2013-05-26 11:31:00,
2013-05-26 07:36:00,53.8,50.0,30.03,North,-999,-999.0,-999.0,87,0.00,,,0.00,tws,2013-05-26 11:36:00,
2013-05-26 07:41:00,53.9,50.0,30.02,North,-999,-999.0,-999.0,86,0.00,,,0.00,tws,2013-05-26 11:41:00,
2013-05-26 07:46:00,54.1,50.3,30.02,North,-999,-999.0,-999.0,87,0.00,,,0.00,tws,2013-05-26 11:46:00,
2013-05-26 07:51:00,54.1,50.3,30.02,North,-999,-999.0,-999.0,86,0.00,,,0.00,tws,2013-05-26 11:51:00,
2013-05-26 07:56:00,54.1,50.1,30.02,North,-999,-999.0,-999.0,86,0.00,,,0.00,tws,2013-05-26 11:56:00,
2013-05-26 08:01:00,54.1,50.2,30.02,North,-999,-999.0,-999.0,86,0.00,,,0.00,tws,2013-05-26 12:01:00,
2013-05-26 08:06:00,54.2,50.1,30.02,North,-999,-999.0,-999.0,86,0.00,,,0.00,tws,2013-05-26 12:06:00,
2013-05-26 08:11:00,54.3,50.1,30.02,North,-999,-999.0,-999.0,85,0.00,,,0.00,tws,2013-05-26 12:11:00,
2013-05-26 08:16:00,54.4,49.6,30.02,North,-999,-999.0,-999.0,83,0.00,,,0.00,tws,2013-05-26 12:16:00,
2013-05-26 08:21:00,54.7,49.7,30.02,North,-999,-999.0,-999.0,83,0.00,,,0.00,tws,2013-05-26 12:21:00,
2013-05-26 08:26:00,55.0,50.0,30.02,North,-999,-999.0,-999.0,82,0.00,,,0.00,tws,2013-05-26 12:26:00,
2013-05-26 08:31:00,55.4,49.9,30.02,North,-999,-999.0,-999.0,81,0.00,,,0.00,tws,2013-05-26 12:31:00,
2013-05-26 08:36:00,55.6,49.8,30.02,North,-999,-999.0,-999.0,80,0.00,,,0.00,tws,2013-05-26 12:36:00,
2013-05-26 08:41:00,55.7,49.4,30.03,North,-999,-999.0,-999.0,79,0.00,,,0.00,tws,2013-05-26 12:41:00,
2013-05-26 08:46:00,55.7,49.6,30.03,North,-999,-999.0,-999.0,79,0.00,,,0.00,tws,2013-05-26 12:46:00,
2013-05-26 08:51:00,55.7,49.6,30.03,North,-999,-999.0,-999.0,79,0.00,,,0.00,tws,2013-05-26 12:51:00,
2013-05-26 08:56:00,55.7,49.7,30.03,North,-999,-999.0,-999.0,79,0.00,,,0.00,tws,2013-05-26 12:56:00,
2013-05-26 09:01:00,55.6,49.4,30.03,North,-999,-999.0,-999.0,79,0.00,,,0.00,tws,2013-05-26 13:01:00,
2013-05-26 09:06:00,55.4,49.2,30.03,North,-999,-999.0,-999.0,79,0.00,,,0.00,tws,2013-05-26 13:06:00,
2013-05-26 09:11:00,55.0,49.5,30.03,North,-999,-999.0,-999.0,81,0.12,,,0.01,tws,2013-05-26 13:11:00,
2013-05-26 09:16:00,54.7,50.0,30.03,North,-999,-999.0,-999.0,83,0.00,,,0.01,tws,2013-05-26 13:16:00,
2013-05-26 09:21:00,54.5,49.8,30.03,North,-999,-999.0,-999.0,84,0.00,,,0.01,tws,2013-05-26 13:21:00,
2013-05-26 09:26:00,54.1,48.8,30.03,North,-999,-999.0,-999.0,82,0.00,,,0.01,tws,2013-05-26 13:26:00,
2013-05-26 09:31:00,54.0,49.2,30.03,North,-999,-999.0,-999.0,83,0.00,,,0.01,tws,2013-05-26 13:31:00,
2013-05-26 09:36:00,54.2,49.2,30.03,North,-999,-999.0,-999.0,83,0.00,,,0.01,tws,2013-05-26 13:36:00,
2013-05-26 09:41:00,54.4,48.6,30.03,North,-999,-999.0,-999.0,80,0.00,,,0.01,tws,2013-05-26 13:41:00,
2013-05-26 09:46:00,54.6,48.6,30.03,North,-999,-999.0,-999.0,80,0.00,,,0.01,tws,2013-05-26 13:46:00,
2013-05-26 09:51:00,54.9,48.8,30.03,North,-999,-999.0,-999.0,79,0.00,,,0.01,tws,2013-05-26 13:51:00,
2013-05-26 09:56:00,55.3,48.8,30.03,North,-999,-999.0,-999.0,78,0.00,,,0.01,tws,2013-05-26 13:56:00,
2013-05-26 10:01:00,55.5,48.3,30.04,North,-999,-999.0,-999.0,76,0.00,,,0.01,tws,2013-05-26 14:01:00,
2013-05-26 10:06:00,55.6,48.3,30.04,North,-999,-999.0,-999.0,76,0.00,,,0.01,tws,2013-05-26 14:06:00,
2013-05-26 10:11:00,55.8,48.7,30.03,North,-999,-999.0,-999.0,77,0.00,,,0.01,tws,2013-05-26 14:11:00,
2013-05-26 10:16:00,55.9,49.4,30.03,North,-999,-999.0,-999.0,78,0.00,,,0.01,tws,2013-05-26 14:16:00,
2013-05-26 10:21:00,56.4,49.4,30.03,North,-999,-999.0,-999.0,77,0.00,,,0.01,tws,2013-05-26 14:21:00,
2013-05-26 10:26:00,56.7,48.5,30.03,North,-999,-999.0,-999.0,73,0.00,,,0.01,tws,2013-05-26 14:26:00,
2013-05-26 10:31:00,57.1,48.5,30.03,North,-999,-999.0,-999.0,72,0.00,,,0.01,tws,2013-05-26 14:31:00,
2013-05-26 10:36:00,57.4,48.4,30.03,North,-999,-999.0,-999.0,71,0.00,,,0.01,tws,2013-05-26 14:36:00,
2013-05-26 10:41:00,57.8,48.9,30.03,North,-999,-999.0,-999.0,72,0.00,,,0.01,tws,2013-05-26 14:41:00,
2013-05-26 10:46:00,58.1,48.1,30.03,North,-999,-999.0,-999.0,69,0.00,,,0.01,tws,2013-05-26 14:46:00,
2013-05-26 10:51:00,58.6,48.1,30.03,North,-999,-999.0,-999.0,67,0.00,,,0.01,tws,2013-05-26 14:51:00,
2013-05-26 10:56:00,59.1,48.4,30.03,North,-999,-999.0,-999.0,67,0.00,,,0.01,tws,2013-05-26 14:56:00,
2013-05-26 11:01:00,59.7,48.9,30.03,North,-999,-999.0,-999.0,66,0.00,,,0.01,tws,2013-05-26 15:01:00,
2013-05-26 11:06:00,60.5,49.1,30.03,North,-999,-999.0,-999.0,65,0.00,,,0.01,tws,2013-05-26 15:06:00,
2013-05-26 11:11:00,61.0,48.4,30.03,North,-999,-999.0,-999.0,62,0.00,,,0.01,tws,2013-05-26 15:11:00,
2013-05-26 11:16:00,61.4,48.8,30.03,North,-999,-999.0,-999.0,63,0.00,,,0.01,tws,2013-05-26 15:16:00,
2013-05-26 11:21:00,61.7,48.7,30.03,North,-999,-999.0,-999.0,62,0.00,,,0.01,tws,2013-05-26 15:21:00,
2013-05-26 11:26:00,61.8,47.9,30.02,North,-999,-999.0,-999.0,59,0.00,,,0.01,tws,2013-05-26 15:26:00,
2013-05-26 11:31:00,62.2,47.7,30.02,North,-999,-999.0,-999.0,58,0.00,,,0.01,tws,2013-05-26 15:31:00,
2013-05-26 11:36:00,62.7,47.7,30.03,North,-999,-999.0,-999.0,57,0.00,,,0.01,tws,2013-05-26 15:36:00,
2013-05-26 11:41:00,63.3,47.2,30.02,North,-999,-999.0,-999.0,55,0.00,,,0.01,tws,2013-05-26 15:41:00,
2013-05-26 11:46:00,63.7,46.3,30.02,North,-999,-999.0,-999.0,52,0.00,,,0.01,tws,2013-05-26 15:46:00,
2013-05-26 11:51:00,64.1,46.9,30.02,North,-999,-999.0,-999.0,53,0.00,,,0.01,tws,2013-05-26 15:51:00,
2013-05-26 11:56:00,64.5,46.2,30.03,North,-999,-999.0,-999.0,51,0.00,,,0.01,tws,2013-05-26 15:56:00,
2013-05-26 12:01:00,65.1,46.8,30.03,North,-999,-999.0,-999.0,51,0.00,,,0.01,tws,2013-05-26 16:01:00,
2013-05-26 12:06:00,65.6,47.5,30.03,North,-999,-999.0,-999.0,51,0.00,,,0.01,tws,2013-05-26 16:06:00,
2013-05-26 12:11:00,65.9,47.7,30.02,North,-999,-999.0,-999.0,51,0.00,,,0.01,tws,2013-05-26 16:11:00,
2013-05-26 12:16:00,66.3,48.7,30.02,North,-999,-999.0,-999.0,52,0.00,,,0.01,tws,2013-05-26 16:16:00,
2013-05-26 12:21:00,66.4,47.9,30.02,North,-999,-999.0,-999.0,51,0.00,,,0.01,tws,2013-05-26 16:21:00,
2013-05-26 12:26:00,66.5,48.1,30.02,North,-999,-999.0,-999.0,51,0.00,,,0.01,tws,2013-05-26 16:26:00,
2013-05-26 12:31:00,66.6,48.4,30.01,North,-999,-999.0,-999.0,51,0.00,,,0.01,tws,2013-05-26 16:31:00,
2013-05-26 12:36:00,66.9,47.7,30.01,North,-999,-999.0,-999.0,49,0.00,,,0.01,tws,2013-05-26 16:36:00,
2013-05-26 12:41:00,67.1,47.7,30.00,North,-999,-999.0,-999.0,49,0.00,,,0.01,tws,2013-05-26 16:41:00,
2013-05-26 12:46:00,67.3,46.7,30.00,North,-999,-999.0,-999.0,47,0.00,,,0.01,tws,2013-05-26 16:46:00,
2013-05-26 12:51:00,67.7,46.4,30.00,North,-999,-999.0,-999.0,46,0.00,,,0.01,tws,2013-05-26 16:51:00,
2013-05-26 12:56:00,67.9,45.9,30.00,North,-999,-999.0,-999.0,44,0.00,,,0.01,tws,2013-05-26 16:56:00,
2013-05-26 13:01:00,68.1,45.6,30.00,North,-999,-999.0,-999.0,43,0.00,,,0.01,tws,2013-05-26 17:01:00,
2013-05-26 13:06:00,68.1,45.1,30.00,North,-999,-999.0,-999.0,43,0.00,,,0.01,tws,2013-05-26 17:06:00,
2013-05-26 13:11:00,68.3,44.8,30.00,North,-999,-999.0,-999.0,42,0.00,,,0.01,tws,2013-05-26 17:11:00,
2013-05-26 13:16:00,68.6,46.0,30.00,North,-999,-999.0,-999.0,43,0.00,,,0.01,tws,2013-05-26 17:16:00,
2013-05-26 13:21:00,68.9,45.6,30.00,North,-999,-999.0,-999.0,42,0.00,,,0.01,tws,2013-05-26 17:21:00,
2013-05-26 13:26:00,69.1,44.5,29.99,North,-999,-999.0,-999.0,40,0.00,,,0.01,tws,2013-05-26 17:26:00,
2013-05-26 13:31:00,69.3,44.3,29.99,North,-999,-999.0,-999.0,40,0.00,,,0.01,tws,2013-05-26 17:31:00,
2013-05-26 13:36:00,69.4,44.2,29.99,North,-999,-999.0,-999.0,39,0.00,,,0.01,tws,2013-05-26 17:36:00,
2013-05-26 13:41:00,69.6,44.5,29.99,North,-999,-999.0,-999.0,39,0.00,,,0.01,tws,2013-05-26 17:41:00,
2013-05-26 13:46:00,69.7,44.7,29.99,North,-999,-999.0,-999.0,40,0.00,,,0.01,tws,2013-05-26 17:46:00,
2013-05-26 13:51:00,70.0,45.4,29.99,North,-999,-999.0,-999.0,40,0.00,,,0.01,tws,2013-05-26 17:51:00,
2013-05-26 13:56:00,70.2,44.8,29.99,North,-999,-999.0,-999.0,39,0.00,,,0.01,tws,2013-05-26 17:56:00,
2013-05-26 14:01:00,70.3,45.8,29.98,North,-999,-999.0,-999.0,41,0.00,,,0.01,tws,2013-05-26 18:01:00,
2013-05-26 14:06:00,70.5,45.5,29.99,North,-999,-999.0,-999.0,40,0.00,,,0.01,tws,2013-05-26 18:06:00,
2013-05-26 14:11:00,70.6,46.0,29.98,North,-999,-999.0,-999.0,40,0.00,,,0.01,tws,2013-05-26 18:11:00,
2013-05-26 14:16:00,70.8,45.7,29.97,North,-999,-999.0,-999.0,40,0.00,,,0.01,tws,2013-05-26 18:16:00,
2013-05-26 14:21:00,70.9,46.3,29.97,North,-999,-999.0,-999.0,40,0.00,,,0.01,tws,2013-05-26 18:21:00,
2013-05-26 14:26:00,71.0,46.4,29.97,North,-999,-999.0,-999.0,41,0.00,,,0.01,tws,2013-05-26 18:26:00,
2013-05-26 14:31:00,71.2,46.3,29.97,North,-999,-999.0,-999.0,40,0.00,,,0.01,tws,2013-05-26 18:31:00,
2013-05-26 14:36:00,71.3,46.2,29.97,North,-999,-999.0,-999.0,40,0.00,,,0.01,tws,2013-05-26 18:36:00,
2013-05-26 14:41:00,71.1,45.6,29.96,North,-999,-999.0,-999.0,39,0.00,,,0.01,tws,2013-05-26 18:41:00,
2013-05-26 14:46:00,71.1,47.1,29.96,North,-999,-999.0,-999.0,42,0.00,,,0.01,tws,2013-05-26 18:46:00,
2013-05-26 14:51:00,71.1,46.1,29.96,North,-999,-999.0,-999.0,40,0.00,,,0.01,tws,2013-05-26 18:51:00,
2013-05-26 14:56:00,71.0,45.5,29.96,North,-999,-999.0,-999.0,39,0.00,,,0.01,tws,2013-05-26 18:56:00,
2013-05-26 15:01:00,71.1,47.2,29.96,North,-999,-999.0,-999.0,42,0.00,,,0.01,tws,2013-05-26 19:01:00,
2013-05-26 15:06:00,71.2,47.1,29.96,North,-999,-999.0,-999.0,41,0.00,,,0.01,tws,2013-05-26 19:06:00,
2013-05-26 15:11:00,71.2,47.2,29.96,North,-999,-999.0,-999.0,41,0.00,,,0.01,tws,2013-05-26 19:11:00,
2013-05-26 15:16:00,71.4,47.3,29.96,North,-999,-999.0,-999.0,41,0.00,,,0.01,tws,2013-05-26 19:16:00,
2013-05-26 15:21:00,71.4,47.5,29.96,North,-999,-999.0,-999.0,42,0.00,,,0.01,tws,2013-05-26 19:21:00,
2013-05-26 15:26:00,71.6,47.5,29.96,North,-999,-999.0,-999.0,41,0.00,,,0.01,tws,2013-05-26 19:26:00,
2013-05-26 15:31:00,71.7,47.4,29.96,North,-999,-999.0,-999.0,41,0.00,,,0.01,tws,2013-05-26 19:31:00,
2013-05-26 15:36:00,71.9,47.2,29.96,North,-999,-999.0,-999.0,41,0.00,,,0.01,tws,2013-05-26 19:36:00,
2013-05-26 15:41:00,72.2,47.1,29.96,North,-999,-999.0,-999.0,40,0.00,,,0.01,tws,2013-05-26 19:41:00,
2013-05-26 15:46:00,72.1,46.4,29.96,North,-999,-999.0,-999.0,39,0.00,,,0.01,tws,2013-05-26 19:46:00,
2013-05-26 15:51:00,71.8,47.2,29.96,North,-999,-999.0,-999.0,41,0.00,,,0.01,tws,2013-05-26 19:51:00,
2013-05-26 15:56:00,71.5,47.6,29.95,North,-999,-999.0,-999.0,42,0.00,,,0.01,tws,2013-05-26 19:56:00,
2013-05-26 16:01:00,71.3,47.5,29.95,North,-999,-999.0,-999.0,42,0.00,,,0.01,tws,2013-05-26 20:01:00,
2013-05-26 16:06:00,71.4,48.1,29.95,North,-999,-999.0,-999.0,43,0.00,,,0.01,tws,2013-05-26 20:06:00,
2013-05-26 16:11:00,71.4,48.8,29.95,North,-999,-999.0,-999.0,44,0.00,,,0.01,tws,2013-05-26 20:11:00,
2013-05-26 16:16:00,71.6,49.3,29.95,North,-999,-999.0,-999.0,44,0.00,,,0.01,tws,2013-05-26 20:16:00,
2013-05-26 16:21:00,72.0,50.0,29.95,North,-999,-999.0,-999.0,45,0.00,,,0.01,tws,2013-05-26 20:21:00,
2013-05-26 16:26:00,72.4,50.1,29.95,North,-999,-999.0,-999.0,44,0.00,,,0.01,tws,2013-05-26 20:26:00,
2013-05-26 16:31:00,72.6,49.3,29.95,North,-999,-999.0,-999.0,43,0.00,,,0.01,tws,2013-05-26 20:31:00,
2013-05-26 16:36:00,72.7,49.5,29.95,North,-999,-999.0,-999.0,43,0.00,,,0.01,tws,2013-05-26 20:36:00,
2013-05-26 16:41:00,72.7,49.5,29.95,North,-999,-999.0,-999.0,43,0.00,,,0.01,tws,2013-05-26 20:41:00,
2013-05-26 16:46:00,72.7,48.9,29.95,North,-999,-999.0,-999.0,42,0.00,,,0.01,tws,2013-05-26 20:46:00,
2013-05-26 16:51:00,72.5,48.3,29.95,North,-999,-999.0,-999.0,41,0.00,,,0.01,tws,2013-05-26 20:51:00,
2013-05-26 16:56:00,72.4,48.5,29.95,North,-999,-999.0,-999.0,42,0.00,,,0.01,tws,2013-05-26 20:56:00,
2013-05-26 17:01:00,72.3,48.8,29.95,North,-999,-999.0,-999.0,42,0.00,,,0.01,tws,2013-05-26 21:01:00,
2013-05-26 17:06:00,72.1,48.7,29.95,North,-999,-999.0,-999.0,42,0.00,,,0.01,tws,2013-05-26 21:06:00,
2013-05-26 17:11:00,72.2,49.3,29.95,North,-999,-999.0,-999.0,43,0.00,,,0.01,tws,2013-05-26 21:11:00,
2013-05-26 17:16:00,72.1,48.0,29.95,North,-999,-999.0,-999.0,41,0.00,,,0.01,tws,2013-05-26 21:16:00,
2013-05-26 17:21:00,72.0,47.6,29.95,North,-999,-999.0,-999.0,41,0.00,,,0.01,tws,2013-05-26 21:21:00,
2013-05-26 17:26:00,71.8,48.2,29.94,North,-999,-999.0,-999.0,42,0.00,,,0.01,tws,2013-05-26 21:26:00,
2013-05-26 17:31:00,71.9,48.3,29.94,North,-999,-999.0,-999.0,42,0.00,,,0.01,tws,2013-05-26 21:31:00,
2013-05-26 17:36:00,72.0,48.3,29.95,North,-999,-999.0,-999.0,42,0.00,,,0.01,tws,2013-05-26 21:36:00,
2013-05-26 17:41:00,72.0,48.3,29.94,North,-999,-999.0,-999.0,42,0.00,,,0.01,tws,2013-05-26 21:41:00,
2013-05-26 17:46:00,72.2,48.8,29.94,North,-999,-999.0,-999.0,43,0.00,,,0.01,tws,2013-05-26 21:46:00,
2013-05-26 17:51:00,72.9,48.7,29.94,North,-999,-999.0,-999.0,41,0.00,,,0.01,tws,2013-05-26 21:51:00,
2013-05-26 17:56:00,73.5,48.8,29.95,North,-999,-999.0,-999.0,41,0.00,,,0.01,tws,2013-05-26 21:56:00,
2013-05-26 18:01:00,73.7,48.4,29.94,North,-999,-999.0,-999.0,40,0.00,,,0.01,tws,2013-05-26 22:01:00,
2013-05-26 18:06:00,73.2,48.3,29.94,North,-999,-999.0,-999.0,40,0.00,,,0.01,tws,2013-05-26 22:06:00,
2013-05-26 18:11:00,72.8,48.0,29.95,North,-999,-999.0,-999.0,40,0.00,,,0.01,tws,2013-05-26 22:11:00,
2013-05-26 18:16:00,72.4,48.1,29.94,North,-999,-999.0,-999.0,41,0.00,,,0.01,tws,2013-05-26 22:16:00,
2013-05-26 18:21:00,71.9,48.1,29.94,North,-999,-999.0,-999.0,42,0.00,,,0.01,tws,2013-05-26 22:21:00,
2013-05-26 18:26:00,71.5,48.2,29.94,North,-999,-999.0,-999.0,43,0.00,,,0.01,tws,2013-05-26 22:26:00,
2013-05-26 18:31:00,71.1,47.9,29.94,North,-999,-999.0,-999.0,43,0.00,,,0.01,tws,2013-05-26 22:31:00,
2013-05-26 18:36:00,70.7,47.6,29.94,North,-999,-999.0,-999.0,43,0.00,,,0.01,tws,2013-05-26 22:36:00,
2013-05-26 18:41:00,70.4,48.4,29.94,North,-999,-999.0,-999.0,45,0.00,,,0.01,tws,2013-05-26 22:41:00,
2013-05-26 18:46:00,70.0,48.1,29.93,North,-999,-999.0,-999.0,45,0.00,,,0.01,tws,2013-05-26 22:46:00,
2013-05-26 18:51:00,69.7,48.0,29.94,North,-999,-999.0,-999.0,45,0.00,,,0.01,tws,2013-05-26 22:51:00,
2013-05-26 18:56:00,69.4,47.8,29.94,North,-999,-999.0,-999.0,45,0.00,,,0.01,tws,2013-05-26 22:56:00,
2013-05-26 19:01:00,69.3,48.0,29.95,North,-999,-999.0,-999.0,46,0.00,,,0.01,tws,2013-05-26 23:01:00,
2013-05-26 19:06:00,69.1,48.0,29.95,North,-999,-999.0,-999.0,46,0.00,,,0.01,tws,2013-05-26 23:06:00,
2013-05-26 19:11:00,69.0,48.2,29.95,North,-999,-999.0,-999.0,46,0.00,,,0.01,tws,2013-05-26 23:11:00,
2013-05-26 19:16:00,68.8,49.2,29.95,North,-999,-999.0,-999.0,49,0.00,,,0.01,tws,2013-05-26 23:16:00,
2013-05-26 19:21:00,68.5,49.4,29.95,North,-999,-999.0,-999.0,50,0.00,,,0.01,tws,2013-05-26 23:21:00,
2013-05-26 19:26:00,68.3,50.0,29.95,North,-999,-999.0,-999.0,51,0.00,,,0.01,tws,2013-05-26 23:26:00,
2013-05-26 19:31:00,68.0,50.4,29.95,North,-999,-999.0,-999.0,52,0.00,,,0.01,tws,2013-05-26 23:31:00,
2013-05-26 19:36:00,67.7,50.5,29.95,North,-999,-999.0,-999.0,53,0.00,,,0.01,tws,2013-05-26 23:36:00,
2013-05-26 19:41:00,67.4,50.3,29.95,North,-999,-999.0,-999.0,53,0.00,,,0.01,tws,2013-05-26 23:41:00,
2013-05-26 19:46:00,67.1,50.3,29.95,North,-999,-999.0,-999.0,54,0.00,,,0.01,tws,2013-05-26 23:46:00,
2013-05-26 19:51:00,66.8,50.6,29.96,North,-999,-999.0,-999.0,55,0.00,,,0.01,tws,2013-05-26 23:51:00,
2013-05-26 19:56:00,66.5,50.9,29.96,North,-999,-999.0,-999.0,56,0.00,,,0.01,tws,2013-05-26 23:56:00,
2013-05-26 20:01:00,66.2,50.9,29.96,North,-999,-999.0,-999.0,57,0.00,,,0.01,tws,2013-05-27 00:01:00,
2013-05-26 20:06:00,66.0,51.1,29.95,North,-999,-999.0,-999.0,58,0.00,,,0.01,tws,2013-05-27 00:06:00,
2013-05-26 20:11:00,65.8,50.9,29.96,North,-999,-999.0,-999.0,58,0.00,,,0.01,tws,2013-05-27 00:11:00,
2013-05-26 20:16:00,65.5,51.2,29.96,North,-999,-999.0,-999.0,59,0.00,,,0.01,tws,2013-05-27 00:16:00,
2013-05-26 20:21:00,65.0,51.3,29.96,North,-999,-999.0,-999.0,60,0.00,,,0.01,tws,2013-05-27 00:21:00,
2013-05-26 20:26:00,64.6,51.2,29.96,North,-999,-999.0,-999.0,61,0.00,,,0.01,tws,2013-05-27 00:26:00,
2013-05-26 20:31:00,64.2,51.1,29.96,North,-999,-999.0,-999.0,62,0.00,,,0.01,tws,2013-05-27 00:31:00,
2013-05-26 20:36:00,63.8,51.4,29.96,North,-999,-999.0,-999.0,63,0.00,,,0.01,tws,2013-05-27 00:36:00,
2013-05-26 20:41:00,63.3,51.1,29.96,North,-999,-999.0,-999.0,64,0.00,,,0.01,tws,2013-05-27 00:41:00,
2013-05-26 20:46:00,62.9,51.0,29.96,North,-999,-999.0,-999.0,64,0.00,,,0.01,tws,2013-05-27 00:46:00,
2013-05-26 20:51:00,62.6,50.8,29.96,North,-999,-999.0,-999.0,65,0.00,,,0.01,tws,2013-05-27 00:51:00,
2013-05-26 20:56:00,62.3,51.1,29.96,North,-999,-999.0,-999.0,66,0.00,,,0.01,tws,2013-05-27 00:56:00,
2013-05-26 21:01:00,61.9,51.5,29.96,North,-999,-999.0,-999.0,68,0.00,,,0.01,tws,2013-05-27 01:01:00,
2013-05-26 21:06:00,61.7,51.5,29.97,North,-999,-999.0,-999.0,69,0.00,,,0.01,tws,2013-05-27 01:06:00,
2013-05-26 21:11:00,61.4,51.6,29.97,North,-999,-999.0,-999.0,70,0.00,,,0.01,tws,2013-05-27 01:11:00,
2013-05-26 21:16:00,61.1,51.9,29.97,North,-999,-999.0,-999.0,71,0.00,,,0.01,tws,2013-05-27 01:16:00,
2013-05-26 21:21:00,60.6,51.6,29.97,North,-999,-999.0,-999.0,71,0.00,,,0.01,tws,2013-05-27 01:21:00,
2013-05-26 21:26:00,60.2,51.3,29.97,North,-999,-999.0,-999.0,72,0.00,,,0.01,tws,2013-05-27 01:26:00,
2013-05-26 21:31:00,60.0,51.4,29.97,North,-999,-999.0,-999.0,72,0.00,,,0.01,tws,2013-05-27 01:31:00,
2013-05-26 21:36:00,59.7,51.5,29.97,North,-999,-999.0,-999.0,74,0.00,,,0.01,tws,2013-05-27 01:36:00,
2013-05-26 21:41:00,59.4,51.1,29.97,North,-999,-999.0,-999.0,73,0.00,,,0.01,tws,2013-05-27 01:41:00,
2013-05-26 21:46:00,59.2,51.0,29.97,North,-999,-999.0,-999.0,74,0.00,,,0.01,tws,2013-05-27 01:46:00,
2013-05-26 21:51:00,59.0,51.1,29.97,North,-999,-999.0,-999.0,74,0.00,,,0.01,tws,2013-05-27 01:51:00,
2013-05-26 21:56:00,58.9,51.2,29.98,North,-999,-999.0,-999.0,75,0.00,,,0.01,tws,2013-05-27 01:56:00,
2013-05-26 22:01:00,58.7,51.2,29.98,North,-999,-999.0,-999.0,75,0.00,,,0.01,tws,2013-05-27 02:01:00,
2013-05-26 22:06:00,58.5,51.1,29.98,North,-999,-999.0,-999.0,76,0.00,,,0.01,tws,2013-05-27 02:06:00,
2013-05-26 22:11:00,58.3,51.1,29.98,North,-999,-999.0,-999.0,76,0.00,,,0.01,tws,2013-05-27 02:11:00,
2013-05-26 22:16:00,58.1,50.8,29.98,North,-999,-999.0,-999.0,76,0.00,,,0.01,tws,2013-05-27 02:16:00,
2013-05-26 22:21:00,57.9,50.9,29.99,North,-999,-999.0,-999.0,77,0.00,,,0.01,tws,2013-05-27 02:21:00,
2013-05-26 22:26:00,57.5,50.9,29.99,North,-999,-999.0,-999.0,78,0.00,,,0.01,tws,2013-05-27 02:26:00,
2013-05-26 22:31:00,57.3,50.9,29.99,North,-999,-999.0,-999.0,79,0.00,,,0.01,tws,2013-05-27 02:31:00,
2013-05-26 22:36:00,57.1,50.9,29.99,North,-999,-999.0,-999.0,79,0.00,,,0.01,tws,2013-05-27 02:36:00,
2013-05-26 22:41:00,56.9,51.0,29.99,North,-999,-999.0,-999.0,80,0.00,,,0.01,tws,2013-05-27 02:41:00,
2013-05-26 22:46:00,56.7,51.1,29.99,North,-999,-999.0,-999.0,81,0.00,,,0.01,tws,2013-05-27 02:46:00,
2013-05-26 22:51:00,56.5,51.0,29.99,North,-999,-999.0,-999.0,81,0.00,,,0.01,tws,2013-05-27 02:51:00,
2013-05-26 22:56:00,56.4,51.1,29.99,North,-999,-999.0,-999.0,82,0.00,,,0.01,tws,2013-05-27 02:56:00,
2013-05-26 23:01:00,56.2,51.1,29.99,North,-999,-999.0,-999.0,82,0.00,,,0.01,tws,2013-05-27 03:01:00,
2013-05-26 23:06:00,56.1,51.2,29.99,North,-999,-999.0,-999.0,83,0.00,,,0.01,tws,2013-05-27 03:06:00,
2013-05-26 23:11:00,55.9,51.3,29.99,North,-999,-999.0,-999.0,84,0.00,,,0.01,tws,2013-05-27 03:11:00,
2013-05-26 23:16:00,55.8,51.2,29.99,North,-999,-999.0,-999.0,84,0.00,,,0.01,tws,2013-05-27 03:16:00,
2013-05-26 23:21:00,55.7,51.1,29.99,North,-999,-999.0,-999.0,84,0.00,,,0.01,tws,2013-05-27 03:21:00,
2013-05-26 23:26:00,55.6,51.2,29.99,North,-999,-999.0,-999.0,85,0.00,,,0.01,tws,2013-05-27 03:26:00,
2013-05-26 23:31:00,55.5,51.2,29.99,North,-999,-999.0,-999.0,85,0.00,,,0.01,tws,2013-05-27 03:31:00,
2013-05-26 23:36:00,55.5,51.2,29.99,North,-999,-999.0,-999.0,85,0.00,,,0.01,tws,2013-05-27 03:36:00,
2013-05-26 23:41:00,55.2,51.2,29.99,North,-999,-999.0,-999.0,85,0.00,,,0.01,tws,2013-05-27 03:41:00,
2013-05-26 23:46:00,55.0,51.2,29.99,North,-999,-999.0,-999.0,86,0.00,,,0.01,tws,2013-05-27 03:46:00,
2013-05-26 23:51:00,54.8,51.0,29.99,North,-999,-999.0,-999.0,86,0.00,,,0.01,tws,2013-05-27 03:51:00,
2013-05-26 23:56:00,54.7,51.0,29.99,North,-999,-999.0,-999.0,87,0.00,,,0.01,tws,2013-05-27 03:56:00,